Time,TemperatureF,DewpointF,PressureIn,WindDirection,WindDirectionDegrees,WindSpeedMPH,WindSpeedGustMPH,Humidity,HourlyPrecipIn,Conditions,Clouds,dailyrainin,SoftwareType,DateUTC
2013-01-08 00:22:00,33.0,-99.9,30.42,North,-999,-999.0,-999.0,-999,-99.99,,,-99.99,,2013-01-08 05:22:00,
2013-01-08 00:33:00,33.0,-99.9,30.42,North,-999,-999.0,-999.0,-999,-99.99,,,-99.99,,2013-01-08 05:33:00,
2013-01-08 00:43:00,33.0,-99.9,30.42,North,-999,-999.0,-999.0,-999,-99.99,,,-99.99,,2013-01-08 05:43:00,
2013-01-08 00:52:00,31.0,-99.9,30.42,North,-999,-999.0,-999.0,-999,-99.99,,,-99.99,,2013-01-08 05:52:00,
2013-01-08 01:33:00,31.0,-99.9,30.42,North,-999,-999.0,-999.0,-999,-99.99,,,-99.99,,2013-01-08 06:33:00,
2013-01-08 01:43:00,31.0,-99.9,30.42,North,-999,-999.0,-999.0,-999,-99.99,,,-99.99,,2013-01-08 06:43:00,
2013-01-08 01:52:00,33.0,-99.9,30.41,North,-999,-999.0,-999.0,-999,-99.99,,,-99.99,,2013-01-08 06:52:00,
2013-01-08 02:22:00,33.0,-99.9,30.41,North,-999,-999.0,-999.0,-999,-99.99,,,-99.99,,2013-01-08 07:22:00,
2013-01-08 02:32:00,33.0,-99.9,30.41,North,-999,-999.0,-999.0,-999,-99.99,,,-99.99,,2013-01-08 07:32:00,
2013-01-08 02:42:00,33.0,-99.9,30.41,North,-999,-999.0,-999.0,-999,-99.99,,,-99.99,,2013-01-08 07:42:00,
2013-01-08 02:52:00,28.0,-99.9,30.40,ESE,110,-999.0,3.0,-999,-99.99,,,-99.99,,2013-01-08 07:52:00,
2013-01-08 03:22:00,28.0,-99.9,30.40,ESE,110,-999.0,3.0,-999,-99.99,,,-99.99,,2013-01-08 08:22:00,
2013-01-08 03:33:00,28.0,-99.9,30.40,ESE,110,-999.0,3.0,-999,-99.99,,,-99.99,,2013-01-08 08:33:00,
2013-01-08 03:42:00,28.0,-99.9,30.40,ESE,110,-999.0,3.0,-999,-99.99,,,-99.99,,2013-01-08 08:42:00,
2013-01-08 04:52:00,33.0,-99.9,30.40,SE,135,-999.0,-999.0,-999,-99.99,,,-99.99,,2013-01-08 09:52:00,
2013-01-08 05:22:00,33.0,-99.9,30.40,SE,135,-999.0,-999.0,-999,-99.99,,,-99.99,,2013-01-08 10:22:00,
2013-01-08 05:33:00,33.0,-99.9,30.40,SE,135,-999.0,-999.0,-999,-99.99,,,-99.99,,2013-01-08 10:33:00,
2013-01-08 05:43:00,33.0,-99.9,30.40,SE,135,-999.0,-999.0,-999,-99.99,,,-99.99,,2013-01-08 10:43:00,
2013-01-08 05:52:00,39.0,-99.9,30.40,North,-999,-999.0,8.0,-999,-99.99,,,-99.99,,2013-01-08 10:52:00,
2013-01-08 06:23:00,39.0,-99.9,30.40,North,-999,-999.0,8.0,-999,-99.99,,,-99.99,,2013-01-08 11:23:00,
2013-01-08 06:33:00,39.0,-99.9,30.40,North,-999,-999.0,8.0,-999,-99.99,,,-99.99,,2013-01-08 11:33:00,
2013-01-08 06:43:00,39.0,-99.9,30.40,North,-999,-999.0,8.0,-999,-99.99,,,-99.99,,2013-01-08 11:43:00,
2013-01-08 06:52:00,39.0,-99.9,30.43,North,-999,-999.0,8.0,-999,-99.99,,,-99.99,,2013-01-08 11:52:00,
2013-01-08 07:22:00,39.0,-99.9,30.43,North,-999,-999.0,8.0,-999,-99.99,,,-99.99,,2013-01-08 12:22:00,
2013-01-08 07:33:00,39.0,-99.9,30.43,North,-999,-999.0,8.0,-999,-99.99,,,-99.99,,2013-01-08 12:33:00,
2013-01-08 07:43:00,39.0,-99.9,30.43,North,-999,-999.0,8.0,-999,-99.99,,,-99.99,,2013-01-08 12:43:00,
2013-01-08 07:53:00,39.0,-99.9,30.43,North,-999,-999.0,6.0,-999,-99.99,,,-99.99,,2013-01-08 12:53:00,
2013-01-08 08:22:00,39.0,-99.9,30.43,North,-999,-999.0,6.0,-999,-99.99,,,-99.99,,2013-01-08 13:22:00,
2013-01-08 08:33:00,39.0,-99.9,30.43,North,-999,-999.0,6.0,-999,-99.99,,,-99.99,,2013-01-08 13:33:00,
2013-01-08 08:43:00,39.0,-99.9,30.43,North,-999,-999.0,6.0,-999,-99.99,,,-99.99,,2013-01-08 13:43:00,
2013-01-08 09:53:00,40.0,-99.9,30.43,North,-999,-999.0,8.0,-999,-99.99,,,-99.99,,2013-01-08 14:53:00,
2013-01-08 10:23:00,40.0,-99.9,30.43,North,-999,-999.0,8.0,-999,-99.99,,,-99.99,,2013-01-08 15:23:00,
2013-01-08 10:33:00,40.0,-99.9,30.43,North,-999,-999.0,8.0,-999,-99.99,,,-99.99,,2013-01-08 15:33:00,
2013-01-08 10:43:00,40.0,-99.9,30.43,North,-999,-999.0,8.0,-999,-99.99,,,-99.99,,2013-01-08 15:43:00,
2013-01-08 12:53:00,42.0,-99.9,30.38,North,-999,2.0,6.0,-999,-99.99,,,-99.99,,2013-01-08 17:53:00,
2013-01-08 13:24:00,42.0,-99.9,30.38,North,-999,2.0,6.0,-999,-99.99,,,-99.99,,2013-01-08 18:24:00,
2013-01-08 13:33:00,42.0,-99.9,30.38,North,-999,2.0,6.0,-999,-99.99,,,-99.99,,2013-01-08 18:33:00,
2013-01-08 13:43:00,42.0,-99.9,30.38,North,-999,2.0,6.0,-999,-99.99,,,-99.99,,2013-01-08 18:43:00,
2013-01-08 13:53:00,45.0,-99.9,30.37,NW,326,3.0,8.0,-999,-99.99,,,-99.99,,2013-01-08 18:53:00,
2013-01-08 14:23:00,45.0,-99.9,30.37,NW,326,3.0,8.0,-999,-99.99,,,-99.99,,2013-01-08 19:23:00,
2013-01-08 14:33:00,45.0,-99.9,30.37,NW,326,3.0,8.0,-999,-99.99,,,-99.99,,2013-01-08 19:33:00,
2013-01-08 14:43:00,45.0,-99.9,30.37,NW,326,3.0,8.0,-999,-99.99,,,-99.99,,2013-01-08 19:43:00,
2013-01-08 15:53:00,46.0,-99.9,30.39,ESE,102,3.0,9.0,-999,-99.99,,,-99.99,,2013-01-08 20:53:00,
2013-01-08 16:23:00,46.0,-99.9,30.39,ESE,102,3.0,9.0,-999,-99.99,,,-99.99,,2013-01-08 21:23:00,
2013-01-08 16:33:00,46.0,-99.9,30.39,ESE,102,3.0,9.0,-999,-99.99,,,-99.99,,2013-01-08 21:33:00,
2013-01-08 16:43:00,46.0,-99.9,30.39,ESE,102,3.0,9.0,-999,-99.99,,,-99.99,,2013-01-08 21:43:00,
2013-01-08 16:53:00,42.0,-99.9,30.39,North,-999,-999.0,-999.0,-999,-99.99,,,-99.99,,2013-01-08 21:53:00,
2013-01-08 17:23:00,42.0,-99.9,30.39,North,-999,-999.0,-999.0,-999,-99.99,,,-99.99,,2013-01-08 22:23:00,
2013-01-08 17:33:00,42.0,-99.9,30.39,North,-999,-999.0,-999.0,-999,-99.99,,,-99.99,,2013-01-08 22:33:00,
2013-01-08 17:43:00,42.0,-99.9,30.39,North,-999,-999.0,-999.0,-999,-99.99,,,-99.99,,2013-01-08 22:43:00,
2013-01-08 17:53:00,41.0,-99.9,30.39,WSW,243,-999.0,-999.0,-999,-99.99,,,-99.99,,2013-01-08 22:53:00,
2013-01-08 18:23:00,41.0,-99.9,30.39,WSW,243,-999.0,-999.0,-999,-99.99,,,-99.99,,2013-01-08 23:23:00,
2013-01-08 18:33:00,41.0,-99.9,30.39,WSW,243,-999.0,-999.0,-999,-99.99,,,-99.99,,2013-01-08 23:33:00,
2013-01-08 18:43:00,41.0,-99.9,30.39,WSW,243,-999.0,-999.0,-999,-99.99,,,-99.99,,2013-01-08 23:43:00,
2013-01-08 19:53:00,41.0,-99.9,30.40,WSW,243,-999.0,-999.0,-999,-99.99,,,-99.99,,2013-01-09 00:53:00,
2013-01-08 20:22:00,41.0,-99.9,30.40,WSW,243,-999.0,-999.0,-999,-99.99,,,-99.99,,2013-01-09 01:22:00,
2013-01-08 20:33:00,41.0,-99.9,30.40,WSW,243,-999.0,-999.0,-999,-99.99,,,-99.99,,2013-01-09 01:33:00,
2013-01-08 20:43:00,41.0,-99.9,30.40,WSW,243,-999.0,-999.0,-999,-99.99,,,-99.99,,2013-01-09 01:43:00,
2013-01-08 21:53:00,43.0,-99.9,30.39,SE,142,-999.0,-999.0,-999,-99.99,,,-99.99,,2013-01-09 02:53:00,
2013-01-08 22:22:00,43.0,-99.9,30.39,SE,142,-999.0,-999.0,-999,-99.99,,,-99.99,,2013-01-09 03:22:00,
2013-01-08 22:33:00,43.0,-99.9,30.39,SE,142,-999.0,-999.0,-999,-99.99,,,-99.99,,2013-01-09 03:33:00,
2013-01-08 22:43:00,43.0,-99.9,30.39,SE,142,-999.0,-999.0,-999,-99.99,,,-99.99,,2013-01-09 03:43:00,
2013-01-08 22:53:00,42.0,-99.9,30.40,North,351,-999.0,-999.0,-999,-99.99,,,-99.99,,2013-01-09 03:53:00,
2013-01-08 23:23:00,42.0,-99.9,30.40,North,351,-999.0,-999.0,-999,-99.99,,,-99.99,,2013-01-09 04:23:00,
2013-01-08 23:33:00,42.0,-99.9,30.40,North,351,-999.0,-999.0,-999,-99.99,,,-99.99,,2013-01-09 04:33:00,
2013-01-08 23:43:00,42.0,-99.9,30.40,North,351,-999.0,-999.0,-999,-99.99,,,-99.99,,2013-01-09 04:43:00,
2013-01-08 23:53:00,42.0,-99.9,30.37,North,351,-999.0,-999.0,-999,-99.99,,,-99.99,,2013-01-09 04:53:00,